Flag for Canada Weather past 2 weeks in Kugluktuk, Nunavut Territory, Canada

Now
36 °F

Partly sunny.


Feels Like: 27 °F
Forecast: 35 / 45 °F
Wind: 13 mph from East

Location: Coppermine

Current Time: Sep 21, 2014 at 8:54:44 PM

Latest Report: Sep 21, 2014 at 8:00 PM


Visibility: 15 mi

Pressure: 29.86 "Hg

Humidity: 81%

Dew point: 30 °F

Location of KugluktukLocation

Historic Weather in Kugluktuk — Graph

°F

Kugluktuk temperature yesterday

Maximum temperature yesterday: 36 °F (at 12:00 AM)
Minimum temperature yesterday: 34 °F (at 5:00 AM)
Average temperature yesterday: 35 °F

Past Weeks' High & Low Weather Summary

 TemperatureHumidityPressure
High50 °F (Sep 9, 3:00 PM)100% (Sep 18, 2:00 AM)30.30 "Hg (Sep 18, 2:00 AM)
Low23 °F (Sep 16, 12:00 AM)39% (Sep 16, 4:00 PM)29.51 "Hg (Sep 18, 8:00 AM)
Average36 °F78%30.00 "Hg
* Reported Sep 6 7:00 PM — Sep 21 7:00 PM, Kugluktuk, Weather by CustomWeather, © 2014

Note: Actual official high and low records may vary slightly from our data, if they occured in-between our weather recording intervals... More about our weather records

Advertising

Kugluktuk weather history for previous 24 hours

 ConditionsComfort  
Time TempWeatherWind HumidityBarometerVisibility
7:00 PM
Sep 21
34 °FPartly sunny.17 mph87%29.86 "Hg15 mi
6:00 PM36 °FMostly cloudy.16 mph75%29.87 "Hg15 mi
5:00 PM34 °FPartly sunny.17 mph81%29.86 "Hg15 mi
4:00 PM34 °FOvercast.16 mph81%29.86 "Hg15 mi
3:00 PM34 °FLight snow. Overcast.16 mph87%29.85 "Hg15 mi
2:00 PM34 °FLight snow. More clouds than sun.16 mph87%29.84 "Hg15 mi
1:00 PM34 °FLight snow. Mostly cloudy.18 mph81%29.83 "Hg12 mi
12:00 PM34 °FMostly cloudy.17 mph81%29.82 "Hg15 mi
11:00 AM34 °FMostly cloudy.17 mph87%29.81 "Hg15 mi
10:00 AM34 °FScattered showers. Overcast.16 mph87%29.80 "Hg10 mi
9:00 AM34 °FSnow flurries. Mostly cloudy.17 mph87%29.79 "Hg10 mi
7:52 AMN/AScattered showers.16 mphN/AN/A15 mi
7:00 AM34 °FLight snow. Mostly cloudy.15 mph87%29.77 "Hg15 mi
6:00 AM34 °FLight snow. Mostly cloudy.15 mph87%29.76 "Hg8 mi
5:00 AM34 °FScattered showers. Overcast.16 mph87%29.76 "Hg12 mi
4:54 AMN/AScattered showers.16 mphN/AN/A12 mi
4:00 AM34 °FLight snow. Mostly cloudy.14 mph93%29.76 "Hg6 mi
3:00 AM34 °FLight snow. Mostly cloudy.17 mph93%29.76 "Hg1 mi
2:53 AMN/ALight snow.17 mphN/AN/A1 mi
2:00 AM34 °FLight snow. Fog.18 mph87%29.77 "Hg10 mi
1:00 AM34 °FLight snow. Fog.17 mph87%29.78 "Hg12 mi
12:00 AM34 °FFog.17 mph81%29.79 "Hg12 mi
11:00 PM
Sep 20
34 °FFog.15 mph81%29.80 "Hg12 mi
10:00 PM34 °FFog.15 mph87%29.81 "Hg12 mi
9:00 PM34 °FFog.17 mph81%29.82 "Hg12 mi
8:00 PM34 °FOvercast.17 mph81%29.83 "Hg15 mi
Weather by CustomWeather, © 2014

See weather overviewHow to use our weather pages